DLH5EF EDDF-EGBB

Flight info

Callsign DLH5EF
Flight time 1h 13m
Altitude 34000
Route OBOKA3W/25C OBOKA Z29 TORNU DCT GALSO Q63 ERING L179 LAM L610 HEMEL
Aircraft A320/M-SDE3FGHIRWY/LB1

Departure

Time 2026-05-07 08:27
Airport Frankfurt Main Airport (EDDF)

Arrival

Time 2026-05-07 09:40
Airport Birmingham Airport (EGBB)
Time Latitude Longitude Altitude Speed Heading
2026-05-07 08:02 50.04394 8.57031 360 ft 0 kts 160°
2026-05-07 08:23 50.04357 8.57052 361 ft 10 kts 159°
2026-05-07 08:24 50.04339 8.57166 361 ft 16 kts 69°
2026-05-07 08:24 50.04385 8.57361 365 ft 22 kts 71°
2026-05-07 08:24 50.04424 8.57524 361 ft 13 kts 68°
2026-05-07 08:24 50.04419 8.57623 366 ft 8 kts 127°
2026-05-07 08:25 50.04359 8.57672 363 ft 11 kts 159°
2026-05-07 08:25 50.04286 8.57708 363 ft 9 kts 186°
2026-05-07 08:25 50.04265 8.57662 362 ft 0 kts 250°
2026-05-07 08:26 50.04077 8.56869 363 ft 103 kts 250°
2026-05-07 08:26 50.03765 8.55555 359 ft 154 kts 249°
2026-05-07 08:26 50.03377 8.54003 954 ft 148 kts 251°
2026-05-07 08:27 50.03007 8.52514 1547 ft 153 kts 252°
2026-05-07 08:27 50.02615 8.50901 2002 ft 166 kts 247°
2026-05-07 08:27 50.01933 8.49388 2506 ft 177 kts 226°
2026-05-07 08:27 50.00901 8.48321 2985 ft 189 kts 204°
2026-05-07 08:28 49.99594 8.47867 3519 ft 196 kts 190°
2026-05-07 08:28 49.98180 8.47557 3893 ft 214 kts 190°
2026-05-07 08:28 49.96685 8.47224 4506 ft 219 kts 189°
2026-05-07 08:28 49.95180 8.46663 4984 ft 232 kts 198°
2026-05-07 08:29 49.93560 8.45912 5352 ft 251 kts 200°
2026-05-07 08:29 49.91987 8.44711 6079 ft 255 kts 218°
2026-05-07 08:29 49.90694 8.42841 6852 ft 255 kts 235°
2026-05-07 08:29 49.89818 8.40419 7400 ft 265 kts 256°
2026-05-07 08:30 49.89685 8.37565 8054 ft 269 kts 282°
2026-05-07 08:30 49.90389 8.34948 8851 ft 270 kts 307°
2026-05-07 08:30 49.91774 8.32966 9688 ft 273 kts 321°
2026-05-07 08:30 49.93302 8.31174 10383 ft 281 kts 322°
2026-05-07 08:31 49.94929 8.29273 10618 ft 304 kts 322°
2026-05-07 08:31 49.96682 8.27223 10909 ft 323 kts 322°
2026-05-07 08:31 49.98501 8.25097 11511 ft 331 kts 322°
2026-05-07 08:31 50.00350 8.22931 12197 ft 335 kts 322°
2026-05-07 08:32 50.02223 8.20730 12902 ft 339 kts 322°
2026-05-07 08:32 50.04114 8.18505 13620 ft 343 kts 322°
2026-05-07 08:32 50.06001 8.16281 14228 ft 347 kts 322°
2026-05-07 08:32 50.07936 8.13994 14819 ft 351 kts 322°
2026-05-07 08:33 50.09887 8.11687 15450 ft 354 kts 322°
2026-05-07 08:33 50.11857 8.09352 16048 ft 358 kts 322°
2026-05-07 08:33 50.13846 8.06998 16673 ft 361 kts 322°
2026-05-07 08:33 50.15852 8.04621 17286 ft 364 kts 323°
2026-05-07 08:34 50.17875 8.02218 17878 ft 368 kts 322°
2026-05-07 08:34 50.19919 7.99780 18450 ft 371 kts 322°
2026-05-07 08:34 50.21974 7.97325 19014 ft 373 kts 322°
2026-05-07 08:34 50.24011 7.94887 19535 ft 376 kts 322°
2026-05-07 08:35 50.26098 7.92391 20026 ft 380 kts 322°
2026-05-07 08:35 50.28203 7.89874 20580 ft 382 kts 322°
2026-05-07 08:35 50.30324 7.87339 21082 ft 386 kts 322°
2026-05-07 08:35 50.32462 7.84777 21599 ft 389 kts 322°
2026-05-07 08:36 50.34613 7.82194 22142 ft 390 kts 322°
2026-05-07 08:36 50.36771 7.79604 22642 ft 393 kts 322°
2026-05-07 08:36 50.38951 7.76989 23172 ft 395 kts 322°
2026-05-07 08:36 50.41114 7.74393 23625 ft 398 kts 322°
2026-05-07 08:37 50.43314 7.71745 24063 ft 399 kts 322°
2026-05-07 08:37 50.45528 7.69072 24386 ft 404 kts 322°
2026-05-07 08:37 50.47750 7.66382 24788 ft 405 kts 322°
2026-05-07 08:37 50.49992 7.63663 25120 ft 409 kts 322°
2026-05-07 08:38 50.52253 7.60918 25439 ft 412 kts 322°
2026-05-07 08:38 50.54521 7.58164 25840 ft 412 kts 322°
2026-05-07 08:38 50.56797 7.55405 26192 ft 415 kts 322°
2026-05-07 08:38 50.59057 7.52666 26558 ft 416 kts 322°
2026-05-07 08:39 50.61347 7.49886 26957 ft 417 kts 322°
2026-05-07 08:39 50.63646 7.47084 27257 ft 419 kts 322°
2026-05-07 08:39 50.65965 7.44252 27521 ft 423 kts 322°
2026-05-07 08:39 50.68294 7.41400 27857 ft 425 kts 322°
2026-05-07 08:40 50.70639 7.38526 28128 ft 429 kts 322°
2026-05-07 08:40 50.72926 7.35493 28436 ft 431 kts 315°
2026-05-07 08:40 50.74887 7.31906 28708 ft 433 kts 306°
2026-05-07 08:40 50.76428 7.27874 28985 ft 436 kts 297°
2026-05-07 08:41 50.77809 7.23604 29268 ft 437 kts 297°
2026-05-07 08:41 50.79200 7.19320 29554 ft 439 kts 297°
2026-05-07 08:41 50.80600 7.15022 29851 ft 441 kts 297°
2026-05-07 08:41 50.82010 7.10702 30060 ft 443 kts 297°
2026-05-07 08:42 50.83386 7.06353 30338 ft 443 kts 296°
2026-05-07 08:42 50.84706 7.01946 30533 ft 445 kts 295°
2026-05-07 08:42 50.85991 6.97484 30731 ft 445 kts 295°
2026-05-07 08:42 50.87255 6.93009 31046 ft 444 kts 295°
2026-05-07 08:43 50.88513 6.88554 31388 ft 443 kts 295°
2026-05-07 08:43 50.89776 6.84121 31674 ft 442 kts 295°
2026-05-07 08:43 50.91051 6.79680 31888 ft 443 kts 295°
2026-05-07 08:43 50.92315 6.75299 32175 ft 442 kts 295°
2026-05-07 08:44 50.93594 6.70870 32479 ft 442 kts 295°
2026-05-07 08:44 50.94873 6.66435 32730 ft 443 kts 295°
2026-05-07 08:44 50.96155 6.61990 32980 ft 443 kts 295°
2026-05-07 08:44 50.97432 6.57546 33284 ft 442 kts 295°
2026-05-07 08:45 50.98702 6.53110 33562 ft 441 kts 295°
2026-05-07 08:45 50.99961 6.48698 33833 ft 441 kts 295°
2026-05-07 08:45 51.01225 6.44255 34016 ft 441 kts 295°
2026-05-07 08:45 51.02476 6.39838 34049 ft 438 kts 295°
2026-05-07 08:46 51.04953 6.31091 34049 ft 436 kts 295°
2026-05-07 08:46 51.07439 6.22300 34051 ft 436 kts 295°
2026-05-07 08:47 51.09921 6.13495 34051 ft 436 kts 294°
2026-05-07 08:47 51.12394 6.04670 34054 ft 437 kts 294°
2026-05-07 08:48 51.14860 5.95830 34052 ft 437 kts 294°
2026-05-07 08:48 51.17303 5.87050 34054 ft 436 kts 294°
2026-05-07 08:49 51.19623 5.78120 34056 ft 436 kts 290°
2026-05-07 08:49 51.21612 5.68988 34051 ft 436 kts 288°
2026-05-07 08:50 51.23507 5.59814 34054 ft 435 kts 288°
2026-05-07 08:50 51.25441 5.50729 34057 ft 435 kts 289°
2026-05-07 08:51 51.27427 5.41606 34060 ft 435 kts 289°
2026-05-07 08:51 51.29413 5.32483 34058 ft 435 kts 289°
2026-05-07 08:52 51.31379 5.23347 34054 ft 435 kts 288°
2026-05-07 08:52 51.33310 5.14262 34057 ft 434 kts 288°
2026-05-07 08:53 51.35253 5.05117 34055 ft 434 kts 288°
2026-05-07 08:53 51.37193 4.95973 34075 ft 434 kts 288°
2026-05-07 08:54 51.39119 4.86825 34074 ft 434 kts 288°
2026-05-07 08:54 51.41038 4.77666 34084 ft 434 kts 288°
2026-05-07 08:55 51.42937 4.68566 34066 ft 433 kts 288°
2026-05-07 08:55 51.44843 4.59402 34057 ft 433 kts 288°
2026-05-07 08:56 51.46739 4.50238 34054 ft 433 kts 287°
2026-05-07 08:56 51.48623 4.41066 34051 ft 433 kts 287°
2026-05-07 08:57 51.50504 4.31894 34050 ft 433 kts 287°
2026-05-07 08:57 51.52363 4.22777 34046 ft 433 kts 287°
2026-05-07 08:58 51.54224 4.13584 34050 ft 433 kts 287°
2026-05-07 08:58 51.55655 4.04240 34054 ft 431 kts 274°
2026-05-07 08:59 51.56151 3.94638 34052 ft 431 kts 274°
2026-05-07 08:59 51.56626 3.85096 34063 ft 431 kts 274°
2026-05-07 09:00 51.57085 3.75478 34069 ft 432 kts 274°
2026-05-07 09:00 51.57535 3.65846 34066 ft 432 kts 274°
2026-05-07 09:01 51.57971 3.56207 34069 ft 433 kts 274°
2026-05-07 09:01 51.58401 3.46626 34070 ft 433 kts 274°
2026-05-07 09:02 51.58834 3.36982 34074 ft 433 kts 274°
2026-05-07 09:02 51.59264 3.27332 34078 ft 432 kts 274°
2026-05-07 09:03 51.59694 3.17694 34080 ft 432 kts 274°
2026-05-07 09:03 51.60100 3.08054 34076 ft 432 kts 273°
2026-05-07 09:04 51.60478 2.98475 34069 ft 432 kts 273°
2026-05-07 09:04 51.60863 2.88834 34072 ft 432 kts 273°
2026-05-07 09:05 51.61254 2.79185 34073 ft 432 kts 273°
2026-05-07 09:05 51.61634 2.69536 34076 ft 432 kts 273°
2026-05-07 09:06 51.61996 2.59941 34077 ft 433 kts 273°
2026-05-07 09:06 51.62348 2.50281 34077 ft 432 kts 273°
2026-05-07 09:07 51.62706 2.40627 34076 ft 432 kts 273°
2026-05-07 09:07 51.63048 2.30970 34077 ft 432 kts 273°
2026-05-07 09:08 51.63377 2.21305 34079 ft 432 kts 273°
2026-05-07 09:08 51.63657 2.11709 34070 ft 432 kts 268°
2026-05-07 09:09 51.62940 2.02112 34077 ft 432 kts 261°
2026-05-07 09:09 51.62041 1.92548 34078 ft 433 kts 261°
2026-05-07 09:10 51.61142 1.82964 34076 ft 434 kts 261°
2026-05-07 09:10 51.60242 1.73416 34070 ft 435 kts 261°
2026-05-07 09:11 51.59329 1.63791 34082 ft 435 kts 263°
2026-05-07 09:11 51.59386 1.54078 34072 ft 435 kts 274°
2026-05-07 09:12 51.59814 1.44366 34080 ft 435 kts 274°
2026-05-07 09:12 51.60219 1.34699 34073 ft 436 kts 274°
2026-05-07 09:13 51.60618 1.24949 34068 ft 437 kts 274°
2026-05-07 09:13 51.61009 1.15187 34070 ft 438 kts 274°
2026-05-07 09:14 51.61400 1.05413 34072 ft 438 kts 274°
2026-05-07 09:14 51.61780 0.95632 34075 ft 438 kts 273°
2026-05-07 09:15 51.62152 0.85896 34066 ft 439 kts 273°
2026-05-07 09:15 51.62523 0.76073 34065 ft 440 kts 273°
2026-05-07 09:16 51.62881 0.66227 34063 ft 441 kts 273°
2026-05-07 09:16 51.63281 0.61350 34064 ft 440 kts 284°
2026-05-07 09:16 51.64082 0.56589 34069 ft 441 kts 285°
2026-05-07 09:17 51.65715 0.47065 33951 ft 443 kts 285°
2026-05-07 09:17 51.66539 0.42269 33281 ft 445 kts 285°
2026-05-07 09:17 51.67350 0.37531 32620 ft 445 kts 285°
2026-05-07 09:18 51.68172 0.32723 31966 ft 444 kts 285°
2026-05-07 09:18 51.68984 0.27935 31321 ft 441 kts 285°
2026-05-07 09:18 51.69787 0.23179 30690 ft 438 kts 285°
2026-05-07 09:18 51.70582 0.18454 30056 ft 436 kts 285°
2026-05-07 09:19 51.71371 0.13744 29338 ft 434 kts 285°
2026-05-07 09:19 51.72155 0.09066 28634 ft 431 kts 285°
2026-05-07 09:19 51.72935 0.04407 27947 ft 429 kts 285°
2026-05-07 09:19 51.73709 -0.00217 27261 ft 426 kts 285°
2026-05-07 09:20 51.74767 -0.04655 26600 ft 424 kts 299°
2026-05-07 09:20 51.76381 -0.08539 25977 ft 421 kts 305°
2026-05-07 09:20 51.78062 -0.12316 25360 ft 419 kts 305°
2026-05-07 09:20 51.79765 -0.16123 24748 ft 417 kts 305°
2026-05-07 09:21 51.81459 -0.19909 24150 ft 414 kts 305°
2026-05-07 09:21 51.83134 -0.23661 23548 ft 413 kts 305°
2026-05-07 09:21 51.84806 -0.27415 22852 ft 411 kts 304°
2026-05-07 09:21 51.86473 -0.31164 22248 ft 408 kts 305°
2026-05-07 09:22 51.88105 -0.34836 22046 ft 396 kts 305°
2026-05-07 09:22 51.89682 -0.38392 22085 ft 385 kts 305°
2026-05-07 09:22 51.91217 -0.41860 22083 ft 383 kts 305°
2026-05-07 09:22 51.92767 -0.45366 21913 ft 383 kts 305°
2026-05-07 09:23 51.94309 -0.48861 21471 ft 380 kts 304°
2026-05-07 09:23 51.95837 -0.52329 21022 ft 376 kts 304°
2026-05-07 09:23 51.97349 -0.55768 20580 ft 373 kts 304°
2026-05-07 09:23 51.98851 -0.59184 20146 ft 370 kts 304°
2026-05-07 09:24 52.00340 -0.62574 19722 ft 367 kts 304°
2026-05-07 09:24 52.01815 -0.65935 19304 ft 364 kts 304°
2026-05-07 09:24 52.03260 -0.69231 18900 ft 362 kts 304°
2026-05-07 09:24 52.04711 -0.72549 18499 ft 359 kts 304°
2026-05-07 09:25 52.06149 -0.75844 18050 ft 356 kts 304°
2026-05-07 09:25 52.07576 -0.79122 17590 ft 354 kts 304°
2026-05-07 09:25 52.08991 -0.82379 17131 ft 352 kts 304°
2026-05-07 09:25 52.10397 -0.85616 16672 ft 349 kts 304°
2026-05-07 09:26 52.11795 -0.88832 16236 ft 347 kts 304°
2026-05-07 09:26 52.13184 -0.92033 15792 ft 345 kts 304°
2026-05-07 09:26 52.14564 -0.95216 15378 ft 343 kts 304°
2026-05-07 09:26 52.15916 -0.98338 14965 ft 341 kts 304°
2026-05-07 09:27 52.17278 -1.01489 14547 ft 340 kts 304°
2026-05-07 09:27 52.18634 -1.04628 14142 ft 338 kts 303°
2026-05-07 09:27 52.21312 -1.10847 13371 ft 332 kts 304°
2026-05-07 09:28 52.22656 -1.13876 12968 ft 329 kts 309°
2026-05-07 09:28 52.24255 -1.16522 12575 ft 326 kts 316°
2026-05-07 09:28 52.25946 -1.18958 12185 ft 323 kts 320°
2026-05-07 09:28 52.27104 -1.20478 11933 ft 321 kts 321°
2026-05-07 09:29 52.28853 -1.22728 11542 ft 318 kts 321°
2026-05-07 09:29 52.31138 -1.25673 11111 ft 313 kts 321°
2026-05-07 09:29 52.32838 -1.27851 10763 ft 309 kts 321°
2026-05-07 09:29 52.34524 -1.30020 10394 ft 307 kts 321°
2026-05-07 09:30 52.36190 -1.32180 10025 ft 305 kts 321°
2026-05-07 09:30 52.37848 -1.34327 9622 ft 303 kts 321°
2026-05-07 09:30 52.38935 -1.35744 9353 ft 301 kts 321°
2026-05-07 09:30 52.40561 -1.37883 8952 ft 298 kts 321°
2026-05-07 09:31 52.42169 -1.40009 8545 ft 296 kts 321°
2026-05-07 09:31 52.44271 -1.42811 8024 ft 292 kts 321°
2026-05-07 09:31 52.45833 -1.44914 7681 ft 289 kts 321°
2026-05-07 09:31 52.46873 -1.46325 7458 ft 286 kts 321°
2026-05-07 09:32 52.48872 -1.49057 7035 ft 279 kts 321°
2026-05-07 09:32 52.49854 -1.50399 6836 ft 276 kts 321°
2026-05-07 09:32 52.51316 -1.52389 6538 ft 270 kts 321°
2026-05-07 09:32 52.52749 -1.54334 6178 ft 265 kts 321°
2026-05-07 09:33 52.54158 -1.56241 5909 ft 260 kts 321°
2026-05-07 09:33 52.55544 -1.58122 5551 ft 257 kts 320°
2026-05-07 09:33 52.56844 -1.60091 5285 ft 252 kts 310°
2026-05-07 09:33 52.57910 -1.62355 4977 ft 248 kts 306°
2026-05-07 09:34 52.58916 -1.64640 4665 ft 245 kts 306°
2026-05-07 09:34 52.59897 -1.66871 4348 ft 242 kts 306°
2026-05-07 09:34 52.60880 -1.69091 4066 ft 237 kts 305°
2026-05-07 09:34 52.61839 -1.71235 3964 ft 231 kts 306°
2026-05-07 09:35 52.62779 -1.73363 3842 ft 228 kts 301°
2026-05-07 09:35 52.63313 -1.75761 3608 ft 222 kts 273°
2026-05-07 09:35 52.63126 -1.78239 3380 ft 218 kts 245°
2026-05-07 09:35 52.62380 -1.80384 3145 ft 214 kts 234°
2026-05-07 09:36 52.61586 -1.82411 2895 ft 208 kts 235°
2026-05-07 09:36 52.60795 -1.84383 2665 ft 205 kts 229°
2026-05-07 09:36 52.59786 -1.85911 2541 ft 196 kts 209°
2026-05-07 09:36 52.58587 -1.86774 2501 ft 184 kts 192°
2026-05-07 09:37 52.57340 -1.86980 2502 ft 180 kts 175°
2026-05-07 09:37 52.56129 -1.86568 2509 ft 177 kts 158°
2026-05-07 09:37 52.55062 -1.85600 2439 ft 171 kts 146°
2026-05-07 09:37 52.54092 -1.84514 2222 ft 167 kts 146°
2026-05-07 09:38 52.53138 -1.83450 1993 ft 164 kts 146°
2026-05-07 09:38 52.52226 -1.82431 1763 ft 153 kts 146°
2026-05-07 09:38 52.51382 -1.81489 1566 ft 142 kts 146°
2026-05-07 09:38 52.50597 -1.80613 1398 ft 135 kts 145°
2026-05-07 09:39 52.49825 -1.79752 1198 ft 133 kts 146°
2026-05-07 09:39 52.49054 -1.78892 1009 ft 134 kts 146°
2026-05-07 09:39 52.48283 -1.78029 826 ft 133 kts 145°
2026-05-07 09:39 52.47524 -1.77180 636 ft 132 kts 146°
2026-05-07 09:40 52.46764 -1.76340 450 ft 132 kts 145°
2026-05-07 09:40 52.46011 -1.75507 323 ft 127 kts 146°
2026-05-07 09:40 52.45418 -1.74845 325 ft 79 kts 146°
2026-05-07 09:40 52.45112 -1.74502 330 ft 33 kts 146°
2026-05-07 09:41 52.44976 -1.74352 327 ft 19 kts 146°
2026-05-07 09:41 52.44958 -1.74173 327 ft 14 kts 75°
2026-05-07 09:41 52.44985 -1.74017 328 ft 14 kts 77°
2026-05-07 09:41 52.45016 -1.73885 330 ft 10 kts 57°
2026-05-07 09:42 52.45050 -1.73799 330 ft 8 kts 56°
2026-05-07 09:42 52.45094 -1.73775 330 ft 6 kts 341°
2026-05-07 09:42 52.45149 -1.73833 331 ft 11 kts 327°
2026-05-07 09:42 52.45209 -1.73897 331 ft 10 kts 326°
2026-05-07 09:43 52.45262 -1.73955 329 ft 9 kts 326°
2026-05-07 09:43 52.45311 -1.73974 329 ft 7 kts 21°
2026-05-07 09:43 52.45338 -1.73920 329 ft 6 kts 58°
2026-05-07 09:43 52.45357 -1.73869 329 ft 6 kts 57°
2026-05-07 09:44 52.45380 -1.73811 330 ft 6 kts 68°
2026-05-07 09:44 52.45343 -1.73749 329 ft 8 kts 148°
2026-05-07 09:44 52.45314 -1.73717 330 ft 4 kts 146°
2026-05-07 09:44 52.45306 -1.73708 332 ft 0 kts 147°
2026-05-07 09:46 52.45482 -1.74028 330 ft 0 kts 146°
2026-05-07 09:47 52.45318 -1.73722 331 ft 0 kts 146°